Retour au catalogue

STARLINK-37710

ActifCommunicationsVLEO
NORAD 69826·PAYLOAD·🇺🇸 United States

Lancé Jul 5, 2026 depuis Cape Canaveral Space Force Station

Loading…

Prochains Passages (prochaines 24 heures)

TLE

FraisSource: CelesTrak SupGP

Époque: Sep 14, 2026, 22:43 UTC

1 69826C 26154H   26257.94701389 -.00010695  00000+0 -31618-3 0  2573
2 69826  53.1601 357.9170 0001255  89.6262 225.0938 15.34375892    14

Suivez STARLINK-37710 en temps réel avec AllMySat

Download on the App Store